Overview Statistics Trail Chart Weather Telemetry Raw packets
 

This is the latest recevied weather packets stored in our database for station/object SV9FBP-13. If no packets are shown the sender has not sent any weather packets the latest 10 day(s).

<< 10 11 12 13 14 15 16 >>
Time Temp. Humidity Pressure Rain* Wind** Luminosity Snow
1788401159 26.67° C 40% 1007.8 hPa 0 mm - - -
1788400256 26.67° C 41% 1007.8 hPa 0 mm - - -
1788399354 26.67° C 41% 1007.7 hPa 0 mm - - -
1788398452 26.67° C 42% 1007.7 hPa 0 mm - - -
1788397550 26.67° C 42% 1008 hPa 0 mm - - -
1788396648 26.67° C 44% 1008 hPa 0 mm - - -
1788395745 26.67° C 48% 1007.8 hPa 0 mm - - -
1788394843 26.67° C 48% 1008 hPa 0 mm - - -
1788393941 26.67° C 45% 1008.1 hPa 0 mm - - -
1788393039 27.22° C 44% 1008 hPa 0 mm - - -
1788392137 26.67° C 50% 1008.2 hPa 0 mm - - -
1788391235 26.67° C 49% 1008.3 hPa 0 mm - - -
1788390332 27.22° C 42% 1008.4 hPa 0 mm - - -
1788389431 26.67° C 45% 1008.6 hPa 0 mm - - -
1788388528 26.67° C 43% 1008.8 hPa 0 mm - - -
1788387626 26.67° C 44% 1009 hPa 0 mm - - -
1788386724 27.22° C 44% 1009.1 hPa 0 mm - - -
1788385822 27.22° C 41% 1009.3 hPa 0 mm - - -
1788384919 27.78° C 33% 1008.9 hPa 0 mm - - -
1788384017 27.78° C 35% 1008.9 hPa 0 mm - - -
1788383120 27.78° C 36% 1008.8 hPa 0 mm - - -
1788382214 27.22° C 43% 1009.1 hPa 0 mm - - -
1788381311 27.78° C 40% 1009.4 hPa 0 mm - - -
1788380410 27.78° C 40% 1009.3 hPa 0 mm - - -
1788379507 27.78° C 39% 1009.5 hPa 0 mm - - -

* Rain latest hour (hover to see other rain measurements)
** Current wind speed in m/s (hover to see current wind gust speed)